FW6085 Weather Reports


time (UTC)temp
C
wind
direction
speed
KPH
gust
KPH
rain 1hr
cm
rain 24hr
cm
rain mn
cm
humidity
%
barometer
mb
20260504201549 21 138 4.8 16.1 0.00 0.00 0.00 34 1005.2
20260504200100 21 148 8.0 20.9 0.00 0.00 0.00 33 1005.3
20260504194601 21 136 4.8 20.9 0.00 0.00 0.00 34 1005.6
20260504193048 21 0 4.8 16.1 0.00 0.00 0.00 40 1005.8
20260504191608 21 146 4.8 16.1 0.00 0.00 0.00 36 1006.0
20260504190053 21 141 9.7 20.9 0.00 0.00 0.00 37 1006.2
20260504184553 21 148 6.4 20.9 0.00 0.00 0.00 37 1006.1
20260504183054 21 149 8.0 17.7 0.00 0.00 0.00 39 1006.4
20260504181557 20 157 6.4 19.3 0.00 0.00 0.00 41 1006.6
20260504180054 20 141 6.4 19.3 0.00 0.00 0.00 40 1006.7
20260504174551 20 142 6.4 22.5 0.00 0.05 0.00 41 1006.8
20260504173053 20 159 8.0 29.0 0.00 0.05 0.00 43 1006.9
20260504171553 21 172 6.4 19.3 0.00 0.05 0.00 41 1006.9
20260504090106 8 148 6.4 12.9 0.00 0.05 0.00 56 1009.0
20260504081553 9 158 6.4 19.3 0.00 0.05 0.00 55 1009.2
20260504044609 9 149 1.6 6.4 0.00 0.05 0.00 51 1009.9
20260504043055 10 157 1.6 4.8 0.00 0.05 0.00 51 1009.9
20260504041552 10 163 0.0 4.8 0.00 0.05 0.00 49 1009.9
20260504040106 10 0 0.0 3.2 0.00 0.05 0.00 49 1009.9
20260504034607 10 163 0.0 3.2 0.00 0.05 0.05 53 1009.9
20260504033055 10 0 0.0 3.2 0.00 0.05 0.05 50 1010.1
20260504031550 10 0 0.0 3.2 0.00 0.05 0.05 49 1010.3
20260504030056 10 163 0.0 3.2 0.00 0.05 0.05 52 1010.3
20260504024550 10 163 0.0 3.2 0.00 0.05 0.05 53 1010.4
20260504023048 10 0 0.0 1.6 0.00 0.05 0.05 49 1010.3
20260504021553 11 0 0.0 4.8 0.00 0.05 0.05 48 1010.5
20260504020050 11 157 1.6 8.0 0.00 0.05 0.05 48 1010.4
20260504014554 11 203 1.6 9.7 0.00 0.05 0.05 48 1010.3
20260504013111 11 203 6.4 24.1 0.00 0.05 0.05 47 1010.4
20260504011552 11 225 3.2 17.7 0.00 0.05 0.05 46 1010.7
20260504010058 12 181 3.2 20.9 0.00 0.05 0.05 44 1010.3
20260504004607 11 184 6.4 25.7 0.00 0.05 0.05 45 1010.1
20260504003049 11 204 4.8 12.9 0.00 0.05 0.05 47 1010.3
20260504001552 11 240 8.0 19.3 0.00 0.05 0.05 47 1010.3
20260504000056 11 218 4.8 16.1 0.00 0.05 0.05 47 1010.2
20260503234552 11 226 4.8 19.3 0.00 0.05 0.05 46 1010.0
20260503233100 12 234 9.7 30.6 0.00 0.05 0.05 44 1010.0
20260503231553 12 234 1.6 9.7 0.00 0.05 0.05 45 1009.6
20260503230058 12 207 3.2 11.3 0.00 0.05 0.05 44 1009.4
20260503224557 12 252 1.6 14.5 0.00 0.05 0.05 44 1009.2
20260503223052 12 155 0.0 8.0 0.00 0.05 0.05 47 1009.4
20260503221550 12 175 1.6 11.3 0.00 0.05 0.05 45 1009.4
20260503220056 12 201 3.2 11.3 0.00 0.05 0.05 45 1009.5
20260503214550 12 233 3.2 12.9 0.00 0.05 0.05 45 1009.5
20260503213048 12 214 1.6 16.1 0.00 0.05 0.05 43 1009.5
20260503211549 12 210 3.2 12.9 0.00 0.05 0.05 45 1009.5
20260503210052 12 228 3.2 12.9 0.00 0.05 0.05 46 1009.6
20260503204551 11 226 3.2 14.5 0.00 0.05 0.05 46 1009.8
20260503203054 11 200 4.8 16.1 0.00 0.05 0.05 46 1009.9